Location: Newark
(35.9031°N, 139.7175°E)
Time: 12:52:44
(UTC+00:00)

Transit 2A - Pass Details

Date: 30 May 2020
Orbit: 592 x 967 km, 66.7° (Epoch: 06 July)

Event Time Altitude Azimuth Distance (km) Brightness Sun altitude
Rises 12:55:02 0° 336° (NNW) 3,569 10.8 -27.2°
Reaches altitude 10° 12:57:34 10° 340° (NNW) 2,657 9.8 -27.4°
Maximum altitude 13:03:47 61° 60° (ENE) 1,083 6.6 -28.0°
Enters shadow 13:04:21 59° 85° (E) 1,107 6.6 -28.0°
